FENGYUN 1C DEB

Satellite information

Favourite Embed

Satellite Type and Status

DEBRISIN ORBIT

Key statistics

Satellite FENGYUN 1C DEB at a glance.

Uptime

9554

Days in orbit

Revolutions

≈ 14.3

Per day

Orbit

SSO

Sun Synchronous Orbit

Inclination

99.1

Latest

Satellite identification and parameters

Extended collection of information and parameters for FENGYUN 1C DEB.

Object identification

Identified? True

Debris? True

Object name: FENGYUN 1C DEB

International designator: 1999-025CWP

Object number (NORAD): 32241

Object ID (CCSDS): 32241

Country: PEOPLES REPUBLIC OF CHINA (PRC)

Current information (Y/N): Y

RCS size: SMALL

Orbital parameters

Period: 100.893 minutes

Inclination: 99.0893 deg

SMA: 7179.067 km

Apoapsis: 906.47 km

Periapsis: 695.394 km

RAAN: 208.3121 deg

Eccentricy: 0.0147008

Argument of periapsis: 330.3973 deg

Mean anomaly: 28.8943 deg

Mean motion: 14.27252169 rev/day

Mean motion (dot): 0.00002639 rev/day2

B* drag term: 0.00098048 1/REarth

Two-line elements (TLE)

Creation date: July 5, 2025, 6:56 a.m.

Reference frame: TEME

Reference center: EARTH

Epoch: July 4, 2025, 8:17 a.m. UTC

TLE line 0: 0 FENGYUN 1C DEB

TLE line 1: 1 32241U 99025CWP 25185.34581039 .00002639 00000-0 98048-3 0 9993

TLE line 2: 2 32241 99.0893 208.3121 0147008 330.3973 28.8943 14.27252169928414

Live tracking on map

Real-time ground track for satellite FENGYUN 1C DEB.

In-orbit conjunctions

A list of the most updated potential collisions computed for object FENGYUN 1C DEB.

Target Orbit TCA Probability of collision Miss distance Type
COSMOS 972 LEO 2025-02-02 13:07:20 0.0001243244 590.0 (m) PAYLOAD

Associated space launch

Chinese polar orbiting meteorological satellite

FENGYUN 1C DEB was lifted into orbit during the mission ‘Long March 4B | Feng Yun 1C’, on board a Long March 4B space rocket.

The launch took place on May 10, 1999, 1:33 a.m. from Launch Complex 7.

For more information about the launch, click the button.

Launch to space Long March 4B | Feng Yun 1C
Long March 4B | Feng Yun 1C

Agency: N/A

Status: Launch Successful

Launch date: May 10, 1999, 1:33 a.m. UTC

Rocket: Long March 4B

Launch pad: Launch Complex 7

Location: Taiyuan Satellite Launch Center, People's Republic of China

...

Latest news about this satellite

There are no fresh news available about this satellite. Check back as we update our databases every day.


Newsletter sign-up

Weekly statistics, charts and insights to help you stay on top of the space industry.